Weather in Ilyinka

Russia / Ryazan Oblast     53°55′19″N   39°26′46″E
temp.,
°C
wind,
m/s
gust,
m/s
humid.,
%
clouds,
%
prec.,
mm/h
press.,
hPa
HPBL,
m
7 march, sun
sun700:00−13w44900 0.0 101670
03:00−13wsw48920 0.0 1015142
06:00−12sw6119133 0.0 1012239
09:00−8sw9188267 0.0 1008698
12:00−4sw111884100 0.2 10031123
15:00−3sw111893100 1.4 9991206
18:00−2sw101891100 1.1 9951111
21:00−3wnw41385100 2.9 994835
8 march, mon
mon800:00−5w7148182 0.3 997914
03:00−8w7158441 0.3 1000412
06:00−10wsw6128921 0.0 999302
09:00−7wsw6129060 0.0 1000604
12:00−5w71086100 0.1 1000948
15:00−5wnw71187100 0.3 10021154
18:00−9wnw5118534 0.1 1004239
21:00−11nw478917 0.1 1008136
9 march, tue
tue900:00−14nw34950 0.0 100942
03:00−15wnw349616 0.0 101148
06:00−15nw359595 0.0 101275
09:00−14nw479596 0.0 1014255
12:00−11nnw469096 0.0 1015510
15:00−11nw468898 0.1 1016630
18:00−14nw3593100 0.0 101797
21:00−17nw449465 0.0 102072
10 march, wed
wed1000:00−20nnw349843 0.0 102161
03:00−23nw349722 0.0 102359
06:00−25nw34988 0.0 102468
09:00−23nnw35964 0.0 1026170
12:00−19nnw35908 0.0 1027290
15:00−16nnw34854 0.0 1027350
18:00−20nw22920 0.0 102720
21:00−22nw22910 0.0 102920
11 march, thu
thu1100:00−23w11920 0.0 102920
03:00−23sw22890 0.0 103020
06:00−23ssw238721 0.0 103020
09:00−19ssw348449 0.0 1029131
12:00−14s4794100 0.1 1029275
15:00−11ssw5891100 0.3 1028423
18:00−12s489477 0.0 1027159
21:00−14s5109339 0.0 1026185